Tracking 28790 objects as of 19-Apr-2024
HD Live streaming from Space Station
objects crossing your sky now

TITAN 4 CENTAUR R/B

Track TITAN 4 CENTAUR R/B now!


NORAD ID: 23247
Int'l Code: 1994-054B
Perigee: 35,506.6 km
Apogee: 36,470.5 km
Inclination: 12.3 °
Period: 1,446.1 minutes
Semi major axis: 42359 km
RCS: Unknown
Launch date: August 27, 1994
Source: United States (US)
Launch site: AIR FORCE EASTERN TEST RANGE (AFETR)

Note: This is a ROCKET BODY
Your satellite tracking list
Your tracking list is empty




NASA's NSSDC Master Catalog

Two Line Element Set (TLE):
1 23247U 94054B   24108.74865782 -.00000057  00000-0  00000-0 0  9995
2 23247  12.3446 358.7467 0113778 336.6296  22.8208  0.99580754 17650
Source of the keplerian elements: McCants